Simultaneous Nadir Overpasses (SNOs) Predictions

Prediction of SNOs near US between AQUA and NPP Satellite Orbit:

Table of predicted SNOs near US for the next 10.0 days since TLE Epoch: 9/4/2021
Index Date (AQUA) Time (AQUA) AQUA Lat,Lon Date (NPP) Time (NPP) NPP Lat,Lon Distance(km) Time Diff (sec)
1 09/05/2021 19:06:18 49.96, -92.54 09/05/2021 19:01:54 49.63, -94.54 148.20 264
2 09/05/2021 20:45:11 49.95,-117.26 09/05/2021 20:43:22 49.52,-119.87 193.52 109
3 09/08/2021 08:35:01 20.00,-101.89 09/08/2021 08:26:41 20.02,-102.18 30.42 500
4 09/08/2021 10:11:24 29.04,-124.41 09/08/2021 10:05:34 29.21,-125.19 78.13 350
5 09/11/2021 07:18:42 49.93, -75.98 09/11/2021 07:20:54 50.40, -78.27 171.52 132
6 09/11/2021 08:57:35 49.94,-100.70 09/11/2021 09:02:22 50.51,-103.59 215.92 287
7 09/13/2021 18:16:52 49.95, -80.18 09/13/2021 18:11:12 49.63, -81.86 125.76 340
8 09/13/2021 19:55:45 49.95,-104.90 09/13/2021 19:52:40 49.52,-107.18 171.06 185
